sat.trackr.live / text

‹ back to catalog

STARLINK-34562

NORAD 64725 · 2025-144B

PAYLOAD ACTIVE UNKNOWN

§ Identity

Operator
Country
US
Launch date
2025-07-02
Launch site
AFETR
Launch vehicle
Mass (kg)
RCS (m²)

Purposes: comms

External: N2YO · Heavens-Above · Gunter

§ Orbital elements

Epoch: 2026-09-20T12:52:38.635392Z

Period
93.85 min
Inclination
53.1609°
Eccentricity
0.0001036
Mean motion
15.34407298 rev/d
Perigee alt
462.0 km
Apogee alt
463.4 km
Semi-major
6,840.8 km
B*
5.1241e-4
RAAN
355.3067°
Arg perigee
76.4354°
Mean anomaly
283.6764°
Rev number
6,953

§ Raw data

STARLINK-345621 64725U 25144B   26263.53655828  .00016980  00000+0  51241-3 0  99902 64725  53.1609 355.3067 0001036  76.4354 283.6764 15.34407298 69530

JSON: /api/v1/satellites/64725 · /tle

For live sub-satellite position, see the globe view (requires WebGL).

§ Visibility from observer

Set your observer location to see the next 7 days of passes ≥ 10°. The values pass through the URL so the page stays shareable.

No JS? Fill the form by hand. The geolocation button needs JavaScript.